INTELSAT 20 (IS-20) (38740 NORAD) Tracking and Keplerian Element Data

This shows tracking and keplerian element data for the satellite.

Feedback or suggestion? Click here.




ElementValue
Catalog38740
NameINTELSAT 20 (IS-20)
Epoch Orbit2303
Epoch Day317.66326974
Epoch Year2018
RAAN262.3139
Inclination0.01
Eccentricity0.0003329
Argument of Perigee285.6203
Mean Anonmoly172.0881
Mean Motion1.00271344
Decay Rate-2.5E-07
L11 38740U 12043A 18317.66326974 -.00000025 00000-0 00000+0 0 9992
L22 38740 0.0100 262.3139 0003329 285.6203 172.0881 1.00271344 23031

Live tracking and technical data element details for INTELSAT 20 (IS-20) (NORAD 38740). INTELSAT 20 (IS-20) can be tracked NOW for your location showing map with azimuth and elevation plus other details from your city location.

Track the satellite on the map from your city or location and see movement details for azimuth, elevation, latitude, longitude, range, height, and movement on the map or in text.







IsCatalogInMostPopularTable: catalog: 38740, numindb: 146
Update: records affected: 1



GetName: 38740 INTELSAT 20 (IS-20)

Hit Count: updated at: Wed, 14 Nov 2018 15:02:36 GMT